Weather History for Alamosa, CO

Change the Weather History Date:

Saturday, March 23, 2013

  Actual Average Record
Temperature  
Mean Temperature 19 °F 36 °F  
Max Temperature 33 °F 52 °F 70 °F (2012)
Min Temperature 5 °F 19 °F -3 °F (1952)
Degree Days  
Heating Degree Days 46 29  
Month to date heating degree days 718 750  
Since 1 July heating degree days 7505 7079  
Cooling Degree Days 0 0  
Month to date cooling degree days 0 0  
Year to date cooling degree days 0 0  
Moisture  
Dew Point 7 °F    
Average Humidity 56    
Maximum Humidity 84    
Minimum Humidity 28    
Precipitation  
Precipitation 0.02 in 0.02 in 0.50 in (2001)
Month to date precipitation 0.34 0.38  
Year to date precipitation 0.56 0.90  
Snow  
Snow 0.20 in 0.10 in 2.30 in (1973)
Month to date snowfall 3.4 3.6  
Since 1 July snowfall 18.9 21.7  
Snow Depth 0.00 in    
Sea Level Pressure  
Sea Level Pressure 29.82 in    
Wind  
Wind Speed 13 mph (NNE)    
Max Wind Speed 30 mph    
Max Gust Speed 36 mph    
Visibility 8 miles    
Events Snow    
T = Trace of Precipitation, MM = Missing Value Source: NWS Daily Summary

Daily Weather History Graph

Daily Weather History Graph

Search for Another Location

Airport:

Trip Planner

Search our weather history database for the weather conditions in past years. The results will help you decide how hot, cold, wet, or windy it might be!

Date:

Astronomy

Mar. 23, 2013 Rise Set
Actual Time 7:02 AM MDT 7:18 PM MDT
Civil Twilight 6:35 AM MDT 7:44 PM MDT
Nautical Twilight 6:05 AM MDT 8:15 PM MDT
Astronomical Twilight 5:34 AM MDT 8:46 PM MDT
Moon 3:51 PM MDT (3/23) 4:35 AM MDT (3/23)
Length of Visible Light 13h 08m
Length of Day
12h 16m
Waxing Gibbous, 85% of the Moon is Illuminated
Mar 23
Waxing Gibbous
Mar 27
Full
Apr 2
Last Quarter
Apr 10
New
Apr 18
First Quarter

Hourly Weather History & Observations

Time (MDT) Temp. Windchill Dew Point Humidity Pressure Visibility Wind Dir Wind Speed Gust Speed Precip Events Conditions
12:52 AM 19.9 °F - 1.9 °F 46% 29.64 in 10.0 mi Calm Calm - N/A   Clear
1:52 AM 27.0 °F 16.7 °F 5.0 °F 39% 29.62 in 10.0 mi North 11.5 mph - N/A   Clear
2:52 AM 21.0 °F 14.6 °F 5.0 °F 50% 29.67 in 10.0 mi ESE 4.6 mph - N/A   Clear
3:52 AM 14.0 °F 3.9 °F 3.0 °F 62% 29.68 in 10.0 mi South 6.9 mph - N/A   Clear
4:52 AM 12.9 °F 0.7 °F 9.0 °F 84% 29.68 in 10.0 mi SSE 9.2 mph - N/A   Clear
5:52 AM 17.1 °F 3.6 °F 10.9 °F 77% 29.64 in 10.0 mi SE 12.7 mph - N/A   Clear
6:52 AM 15.1 °F 3.3 °F 9.0 °F 77% 29.65 in 10.0 mi SSE 9.2 mph - N/A   Clear
7:52 AM 19.9 °F 10.1 °F 7.0 °F 57% 29.65 in 10.0 mi SSW 8.1 mph - N/A   Clear
8:52 AM 30.9 °F 17.8 °F 1.9 °F 29% 29.63 in 10.0 mi WSW 23.0 mph 27.6 mph N/A   Clear
9:52 AM 28.9 °F 20.4 °F 5.0 °F 36% 29.65 in 10.0 mi North 9.2 mph - N/A   Overcast
10:28 AM 32.0 °F 24.2 °F 3.2 °F 30% 29.67 in 10.0 mi NNW 9.2 mph 28.8 mph N/A   Overcast
10:52 AM 26.1 °F 12.0 °F 3.9 °F 39% 29.71 in 10.0 mi North 20.7 mph 26.5 mph N/A   Overcast
11:01 AM 23.0 °F 7.2 °F 12.2 °F 63% 29.70 in 1.8 mi North 23.0 mph 29.9 mph 0.00 in Snow Light Snow
11:13 AM 21.2 °F 7.8 °F 14.0 °F 74% 29.71 in 1.0 mi North 15.0 mph 25.3 mph 0.00 in Snow Light Snow
11:28 AM 19.4 °F 5.0 °F 14.0 °F 80% 29.73 in 0.5 mi North 16.1 mph 33.4 mph 0.00 in Snow Snow
11:35 AM 19.4 °F 3.2 °F 12.2 °F 74% 29.73 in 0.2 mi North 20.7 mph 28.8 mph 0.00 in Snow Heavy Snow
11:52 AM 19.9 °F 4.3 °F 10.9 °F 68% 29.78 in 0.5 mi North 19.6 mph 27.6 mph 0.02 in Snow Snow
12:01 PM 21.2 °F 4.9 °F 8.6 °F 58% 29.73 in 2.0 mi North 23.0 mph 31.1 mph 0.00 in Snow Light Snow
12:03 PM 21.2 °F 7.3 °F 6.8 °F 54% 29.73 in 3.0 mi North 16.1 mph 31.1 mph 0.00 in Snow Light Snow
12:20 PM 24.8 °F 12.4 °F 6.8 °F 46% 29.73 in 10.0 mi North 15.0 mph - 0.00 in   Overcast
12:52 PM 25.0 °F 10.9 °F 3.9 °F 41% 29.82 in 10.0 mi North 19.6 mph 33.4 mph 0.00 in   Overcast
1:52 PM 25.0 °F 9.2 °F 7.0 °F 46% 29.83 in 10.0 mi North 25.3 mph 32.2 mph N/A   Overcast
2:52 PM 26.1 °F 11.6 °F 1.0 °F 34% 29.85 in 10.0 mi NNE 21.9 mph 35.7 mph N/A   Overcast
3:52 PM 25.0 °F 9.9 °F 3.0 °F 39% 29.92 in 10.0 mi North 23.0 mph 29.9 mph N/A   Overcast
4:52 PM 23.0 °F 8.0 °F 6.1 °F 48% 29.98 in 10.0 mi NNE 20.7 mph 26.5 mph N/A   Mostly Cloudy
5:52 PM 18.0 °F 4.2 °F 10.9 °F 74% 30.01 in 10.0 mi ESE 13.8 mph - N/A   Overcast
6:52 PM 18.0 °F 6.1 °F 7.0 °F 62% 30.06 in 10.0 mi ESE 10.4 mph - N/A   Overcast
7:52 PM 16.0 °F 5.3 °F 7.0 °F 68% 30.09 in 10.0 mi SSE 8.1 mph - 0.00 in   Overcast
8:52 PM 14.0 °F 3.9 °F 3.9 °F 64% 30.08 in 10.0 mi SSE 6.9 mph - N/A   Mostly Cloudy
9:52 PM 10.0 °F -0.9 °F 3.9 °F 76% 30.14 in 10.0 mi South 6.9 mph - N/A   Partly Cloudy
10:52 PM 7.0 °F -1.7 °F 1.9 °F 80% 30.19 in 10.0 mi SSW 4.6 mph - N/A   Clear
11:52 PM 6.1 °F -6.8 °F 1.9 °F 83% 30.24 in 10.0 mi SSE 8.1 mph - N/A   Clear